sat.trackr.live / text

‹ back to catalog

STARLINK-2518

NORAD 48333 · 2021-036BK

PAYLOAD ACTIVE UNKNOWN

§ Identity

Operator
Country
US
Launch date
2021-04-29
Launch site
AFETR
Launch vehicle
Mass (kg)
RCS (m²)

Purposes: comms

External: N2YO · Heavens-Above · Gunter

§ Orbital elements

Epoch: 2026-09-19T13:38:17.822976Z

Period
94.01 min
Inclination
53.1587°
Eccentricity
0.0001297
Mean motion
15.31706183 rev/d
Perigee alt
469.8 km
Apogee alt
471.6 km
Semi-major
6,848.9 km
B*
3.6495e-5
RAAN
278.7582°
Arg perigee
85.6515°
Mean anomaly
274.4634°
Rev number
29,775

§ Raw data

STARLINK-25181 48333U 21036BK  26262.56826184  .00000768  00000+0  36495-4 0  99922 48333  53.1587 278.7582 0001297  85.6515 274.4634 15.31706183297755

JSON: /api/v1/satellites/48333 · /tle

For live sub-satellite position, see the globe view (requires WebGL).

§ Visibility from observer

Set your observer location to see the next 7 days of passes ≥ 10°. The values pass through the URL so the page stays shareable.

No JS? Fill the form by hand. The geolocation button needs JavaScript.